STARLINK-11415, 62592

Orbit data source: Space-Track

STARLINK-11415, 62592 is a payload satellite owned by SpaceX/Seattle (US) in LEO that was launched on Mon, 13 Jan 2025 UTC via an FALCON 9 launch vehicle from the Air Force Eastern Test Range (AFETR). Payloads include a variety of satellites, spacecraft, and rockets equipped with specific instruments for various scientific and technological missions. These include communications satellites like Starlink; space stations such as the ISS; scientific satellites like the Hubble; Earth observation satellites from companies like Planet Labs, Umbra, and HawkEye 360; GPS; miniature CubeSats for education and research; and military/defense satellites.

Loading next visibility...
STARLINK-11415 details
Identifier
62592, 2025-008F
Orbit
LEO
Last TLE update16 hours ago
Origin
Flag of USSpaceX/Seattle (US)
ManufacturerSpaceX/Seattle
MissionOperational spacecraft
Bus & MotorSTARLINK V2M, Unknown motor
Mass730 kg wet, ~700 kg dry
Launch date (UTC)
2025-01-13 (3 weeks ago)
Launch vehicle
FALCON 9
Launch site
Air Force Eastern Test Range (AFETR)
Object type
Payload
Rocket body
Debris
Shape & HBRUnknown
Radar Cross SectionLarge (>1 m²)

Expand to show TLE details & history

TLE from 16 hours ago
0 STARLINK-11415
1 62592U 25008F   25035.60957614  .00001568  00000-0  11873-4 0  9996
2 62592  43.0002   7.7284 0001856 263.4203  96.6456 15.77861137  4593
Epoch: 2025-02-04T14:37Z
Definitive object data (Epoch: 2025-02-04T14:37:47.378Z)
Latitude-0.00002°
Longitude13.26857°
Altitude336.417 km
Speed7.709 km/s
True Right ascension00h 30m 54s
True Declination0° 00' 00"
Sunlit
Object was in daylight at TLE epoch
Visualization TLE readout
Latitude-14.9087°
Longitude-154.31193°
Altitude338.863 km
Speed7.707 km/s
Apparent Right ascension16h 15m 59s
Apparent Declination-41° 09' 15"
Sunlit
Object is in full shadow
Visualization observer readout
Local Sidereal Time08:42:37
Azimuth114.381° SE
Elevation-40.623°
Doppler factor1
Orbital elements
Apogee altitude339.736 km
Perigee altitude337.243 km
Semi-major axis6,716.626 km
Eccentricity0.0001856
Inclination43.0002°
RAAN7.7284°
Arg. of periapsis263.4203°
True anomaly96.66672°
Mean anomaly96.6456°
Eccentric anomaly96.65616°
Mean motion3.94291 °/min
BSTAR0.000011873
Orbital period91.3 mins
Loading maneuver chart data...
Loading historical data...
Loading historical data...
Loading historical data...
Loading historical data...
Loading historical data...
Loading historical data...
Loading historical data...

STARLINK-11415 Visibility forecast

Observer location: undefined°, undefined

Span
Click to sort rows by Start time (UTC) header in descending order
Start Az.
Max El. time (UTC)
Max El. Az.
Max El.
End time (UTC)
End Az.
4 mins2025-02-06 05:01:25.201Z296.866° NW2025-02-06 05:03:25.201Z57.356° ENE39.084°2025-02-06 05:05:25.201Z94.777° ESE
|